[[{"header":{"parameterUnit":"m.s-1","parameterCategory":1,"la1":30.2991,"la2":30.254,"lo1":-89.0895,"lo2":-89.0444,"dy":0.0017,"dx":0.0017,"nx":28,"ny":28,"refTime":"2025-06-02T03:00:00:Z","depth":0,"parameterNumber":2,"parameterNumberName":"U-component_of_WINDS"},"data":[0,0,0,0,0,0,0,0,0,0,0,0,0,0,0,0,0,0,0,0,0,0,0,0,0,0,0,0,0,0,0,0,0,0,0,0,0,0,0,0,0,0,0,0,0,0,0,0,0,0,0,0,0,0,0,0,0,0,0.9727,0.9727,0,0.9793,0.9794,0.9795,0.9808,0.9807,0.9807,0.9806,0.9874,0.9876,0.9879,0,0,0,0,0,0,0,0,0,0,0,0,0,0.961,0.9612,0.9727,0.9727,0.9728,0.9793,0.9794,0.9795,0.9808,0.9807,0.9806,0.9806,0.9873,0.9876,0.9879,0,0,0,0,0,0,0,0,0,0,0,0,0,0.9667,0.9613,0.9726,0.9743,0.9745,0.9793,0.9794,0.9795,0.9808,0.9807,0.9806,0.9806,0.9873,0.9876,0.9879,0.9916,0,0,0.989,0.9891,0,0,0,0,0,0,0,0,0.9664,0.9671,0.9739,0.9741,0.9744,0.9791,0.9778,0.9836,0.9808,0.9784,0.9806,0.9805,0.9847,0.9853,0.9867,0.9919,0.9922,0.989,0.9892,0.9894,0.9895,0,0,0,0,0,0,0,0.966,0.9669,0.9753,0.974,0.9743,0.9746,0.9753,0.9789,0.9819,0.9786,0.9787,0.9795,0.9848,0.9864,0.9869,0.9923,0.989,0.9893,0.9895,0.9897,1.0008,1.0009,0,0,0,0,0,0,0.9653,0.9665,0.9751,0.9755,0.9701,0.9749,0.9757,0.9777,0.9819,0.9824,0.9795,0.9795,0.9858,0.9865,0.9871,0.9916,0.9894,0.9897,0.9899,1.0007,1.0008,1.0009,0,0,0,0,0,0,0.9651,0.9661,0.9748,0.971,0.9722,0.9752,0.9774,0.9779,0.9794,0.9826,0.9831,0.9805,0.9858,0.9866,0.9905,0.9919,0.9898,0.9902,1.0006,1.0007,1.0009,1.0007,0,0,0,0,0,0,0.9647,0.966,0.9674,0.9711,0.9724,0.9781,0.9775,0.978,0.98,0.98,0.9837,0.9842,0.9858,0.9899,0.9908,0.9923,0.9904,1.0005,1.0007,1.0008,1.0006,1.0008,1.001,0,0,0,0,0,0.9643,0.9671,0.9675,0.9685,0.9742,0.9781,0.9789,0.9806,0.9801,0.9815,0.9836,0.9841,0.9916,0.9903,0.9913,0.9929,1.0004,1.0006,1.0008,1.0005,1.0007,1.001,0,0,0,0,0,0,0.9636,0.9676,0.9681,0.9722,0.9748,0.9784,0.9803,0.9809,0.9837,0.9837,0.9857,0.9865,0.9902,0.992,0.9905,0.9967,0.996,0.9964,0.9954,0.9956,0.9958,0.9953,0.9907,0,0,0,0,0,0.9639,0.9667,0.9701,0.9734,0.9747,0.9772,0.979,0.9801,0.9829,0.9841,0.9864,0.9891,0.992,0.994,0.9969,1.0008,1.0016,1.0024,1.0026,1.0028,1.0031,1.0052,1.0056,1.0016,1.0016,1.0016,0,0,0.9646,0.9671,0.9688,0.9733,0.9755,0.9783,0.9782,0.9812,0.9834,0.9845,0.9883,0.9901,0.9932,0.9971,0.9989,0.9987,1.0044,1.003,1.0031,1.0034,1.0055,1.0058,1.0062,1.0017,1.0017,1.0017,0,0,0.9672,0.9695,0.9724,0.9746,0.9779,0.9796,0.9803,0.9837,0.985,0.9887,0.9896,0.9922,0.9973,0.9994,1.0012,1.0046,1.0052,1.0055,1.0066,1.0086,1.0089,1.0092,1.0103,1.0107,1.0058,1.0058,1.0058,0,0.9677,0.972,0.9739,0.9769,0.9788,0.98,0.9829,0.9849,0.989,0.9903,0.9899,0.9962,0.9985,1.0028,1.0036,1.0051,1.0059,1.0051,1.0087,1.009,1.0093,1.0104,1.0109,1.0059,1.0059,1.0059,1.0059,0,0.9723,0.9753,0.9773,0.9812,0.9833,0.9863,0.9885,0.9905,0.9914,0.9931,0.9969,0.9995,1.003,1.0041,1.0051,1.0086,1.0083,1.0083,1.0077,1.0097,1.0108,1.0112,1.0059,1.0059,1.0059,1.0059,0,0,0.9747,0.9795,0.9802,0.9819,0.9856,0.988,0.9909,0.9943,0.9959,0.9986,1.0011,1.0054,1.0054,1.0074,1.0086,1.0104,1.0128,1.0102,1.0103,1.0105,1.0167,1.0166,1.0171,1.0132,1.0133,1.0134,1.0164,0,0.9778,0.9831,0.9848,0.9893,0.992,0.9932,0.9958,0.9983,0.9999,1.0025,1.0043,1.0072,1.0071,1.0083,1.0101,1.0121,1.0141,1.0119,1.0155,1.0156,1.0146,1.0177,1.0176,1.0204,1.0169,1.0169,1.017,0,0.982,0.9848,0.9895,0.9928,0.994,0.9963,0.9994,1.0019,1.0048,1.0058,1.008,1.0091,1.0122,1.0113,1.0156,1.0141,1.0157,1.0168,1.017,1.0173,1.0164,1.018,1.0213,1.0217,1.0177,1.0176,1.0176,0,0.9832,0.9881,0.9916,0.993,0.9969,0.9985,1.0002,1.003,1.0048,1.0076,1.0088,1.0119,1.0136,1.0159,1.0177,1.017,1.0218,1.0211,1.0227,1.0226,1.0236,1.0235,1.0271,1.0247,1.0247,1.0247,1.0247,0,0.9864,0.9892,0.9921,0.9942,0.9974,0.9993,1.0024,1.0041,1.0066,1.009,1.0102,1.0125,1.0148,1.0173,1.0188,1.022,1.0228,1.0237,1.024,1.0235,1.0234,1.0245,1.0243,1.0248,1.0248,1.0248,1.0248,0,0.9881,0.9902,0.994,0.9974,0.9983,1.0005,1.0034,1.0054,1.0071,1.0102,1.011,1.0136,1.0167,1.0187,1.0227,1.0236,1.0271,1.0275,1.0261,1.0263,1.0277,1.0275,1.0321,1.0327,1.03,1.03,1.03,0,0.99,0.9922,0.9958,0.9975,0.9992,1.0019,1.0038,1.0058,1.0077,1.0111,1.0127,1.0159,1.0184,1.0232,1.0255,1.0285,1.0288,1.0302,1.0293,1.0287,1.0287,1.0285,1.0287,1.0304,1.0304,1.0304,1.0304,0,0.993,0.9939,0.9966,0.9997,1.0019,1.0044,1.0069,1.0082,1.0106,1.0127,1.0158,1.0178,1.0218,1.0248,1.028,1.0297,1.0304,1.0307,1.0312,1.0307,1.0298,1.0302,1.0265,1.0306,1.0306,1.0305,1.0305,1.0305,0.9948,0.9968,0.9996,1.0026,1.0046,1.0069,1.009,1.0109,1.0136,1.0169,1.0179,1.0211,1.0239,1.0282,1.03,1.0325,1.0323,1.0331,1.0333,1.0334,1.0333,1.0294,1.0331,1.0331,1.0331,1.0331,1.0331,0,0.9978,0.9997,1.0024,1.0058,1.0081,1.0086,1.0114,1.0133,1.0161,1.0186,1.0211,1.0246,1.0276,1.03,1.033,1.0346,1.035,1.0353,1.0352,1.0355,1.0333,1.0326,1.0349,1.0349,1.0349,1.0349,1.0349,1.0349,0.9997,1.003,1.0042,1.0085,1.0104,1.0135,1.0151,1.0172,1.0191,1.023,1.0255,1.0271,1.0295,1.0327,1.0354,1.0361,1.0371,1.0373,1.038,1.0359,1.0357,1.0355,1.0348,1.0375,1.0375,1.04,1.04,1.04]},{"header":{"parameterUnit":"m.s-1","parameterCategory":1,"la1":30.2991,"la2":30.254,"lo1":-89.0895,"lo2":-89.0444,"dy":0.0017,"dx":0.0017,"nx":28,"ny":28,"refTime":"2025-06-02T03:00:00:Z","depth":0,"parameterNumber":3,"parameterNumberName":"V-component_of_WINDS"},"data":[0,0,0,0,0,0,0,0,0,0,0,0,0,0,0,0,0,0,0,0,0,0,0,0,0,0,0,0,0,0,0,0,0,0,0,0,0,0,0,0,0,0,0,0,0,0,0,0,0,0,0,0,0,0,0,0,0,0,4.1093,4.1093,0,4.1073,4.1073,4.1073,4.1011,4.101,4.1008,4.1007,4.0987,4.0988,4.0989,0,0,0,0,0,0,0,0,0,0,0,0,0,4.1076,4.1077,4.1093,4.1093,4.1093,4.1073,4.1073,4.1073,4.1011,4.101,4.1008,4.1006,4.0987,4.0988,4.0989,0,0,0,0,0,0,0,0,0,0,0,0,0,4.1073,4.1077,4.1093,4.1059,4.1056,4.1074,4.1073,4.1073,4.1012,4.101,4.1008,4.1006,4.0987,4.0988,4.0989,4.1037,0,0,4.0993,4.0993,0,0,0,0,0,0,0,0,4.1073,4.1074,4.1065,4.1062,4.1058,4.1043,4.106,4.1061,4.1012,4.1029,4.1007,4.1005,4.1007,4.1007,4.1008,4.1036,4.1036,4.0993,4.0993,4.0994,4.0994,0,0,0,0,0,0,0,4.1073,4.1074,4.1085,4.1065,4.1061,4.1045,4.1042,4.106,4.103,4.1027,4.1023,4.1021,4.1005,4.1007,4.1007,4.1035,4.0993,4.0994,4.0994,4.0995,4.1101,4.1103,0,0,0,0,0,0,4.1078,4.1075,4.1086,4.1085,4.1061,4.1047,4.1044,4.105,4.103,4.1024,4.1023,4.1018,4.1006,4.1005,4.1006,4.106,4.0994,4.0995,4.0996,4.1099,4.1101,4.1104,0,0,0,0,0,0,4.1078,4.108,4.1087,4.1078,4.1078,4.105,4.1057,4.105,4.1052,4.1026,4.1021,4.103,4.1004,4.1004,4.1029,4.1058,4.0995,4.0996,4.1096,4.1099,4.1102,4.1169,0,0,0,0,0,0,4.1078,4.108,4.1099,4.1079,4.1079,4.1111,4.1058,4.1052,4.1054,4.1048,4.1031,4.1027,4.1003,4.1028,4.1031,4.1059,4.0997,4.1093,4.1098,4.1101,4.1164,4.1174,4.1182,0,0,0,0,0,4.1078,4.1119,4.11,4.1102,4.1101,4.1113,4.1113,4.1084,4.1056,4.1074,4.1058,4.1027,4.1055,4.1031,4.1034,4.1062,4.1092,4.1096,4.1101,4.116,4.1172,4.1182,0,0,0,0,0,0,4.1143,4.1116,4.1095,4.113,4.1124,4.1103,4.1124,4.1098,4.11,4.1094,4.1058,4.1055,4.1085,4.1076,4.1051,4.1107,4.1068,4.1073,4.1112,4.1123,4.1132,4.1133,4.0998,0,0,0,0,0,4.1161,4.1173,4.1149,4.1183,4.1181,4.1153,4.1157,4.1136,4.1128,4.1125,4.1111,4.1104,4.1111,4.1117,4.1122,4.1162,4.1157,4.1183,4.1192,4.12,4.1205,4.1224,4.1235,4.1119,4.1119,4.1119,0,0,4.12,4.1186,4.1196,4.1195,4.1188,4.1201,4.1152,4.1168,4.1176,4.1128,4.115,4.1139,4.113,4.1163,4.1176,4.1156,4.1236,4.1206,4.1213,4.1213,4.123,4.1241,4.1251,4.1123,4.1122,4.1122,0,0,4.1276,4.1267,4.1294,4.1287,4.1277,4.1258,4.1264,4.1246,4.1237,4.1259,4.1222,4.1232,4.1246,4.124,4.1239,4.1312,4.1283,4.1314,4.1362,4.1382,4.1391,4.1399,4.1424,4.1433,4.132,4.132,4.132,0,4.1325,4.1342,4.1311,4.1329,4.1329,4.1285,4.1311,4.1307,4.1299,4.13,4.1277,4.1292,4.1282,4.1312,4.133,4.1331,4.1337,4.1316,4.1392,4.14,4.1406,4.143,4.1439,4.1323,4.1323,4.1323,4.1322,0,4.1402,4.1415,4.1438,4.1431,4.1434,4.1456,4.1427,4.1434,4.1412,4.1395,4.1418,4.1405,4.1406,4.1411,4.139,4.1438,4.1426,4.1398,4.1358,4.1422,4.1443,4.1452,4.1329,4.1328,4.1326,4.1325,0,0,4.1519,4.1493,4.1502,4.1497,4.1482,4.1491,4.1511,4.1512,4.1518,4.1514,4.1528,4.154,4.1514,4.1513,4.1491,4.1508,4.1565,4.1478,4.1477,4.1493,4.1615,4.1636,4.1646,4.1546,4.1547,4.1549,4.1616,0,4.1591,4.1622,4.1594,4.1631,4.1642,4.16,4.1617,4.1609,4.1594,4.1601,4.1584,4.1592,4.1558,4.1557,4.1572,4.1555,4.1588,4.1549,4.1559,4.156,4.1562,4.1658,4.1679,4.1743,4.1624,4.1625,4.1626,0,4.1678,4.1677,4.1715,4.1696,4.1699,4.1715,4.1713,4.172,4.171,4.1698,4.1696,4.1668,4.1686,4.1647,4.167,4.1644,4.1646,4.1638,4.164,4.1639,4.1596,4.1659,4.1763,4.1773,4.1639,4.1638,4.1637,0,4.1758,4.1766,4.1789,4.1787,4.1766,4.1777,4.1769,4.1757,4.1759,4.1757,4.1757,4.1758,4.1758,4.1759,4.1732,4.1706,4.1758,4.1717,4.1747,4.1748,4.176,4.1759,4.1865,4.1763,4.1763,4.1762,4.1762,0,4.184,4.1865,4.1825,4.1839,4.1865,4.1832,4.1859,4.1846,4.1836,4.1847,4.181,4.1821,4.1786,4.1793,4.1772,4.1793,4.1794,4.1784,4.1778,4.1787,4.1788,4.1787,4.1782,4.1765,4.1764,4.1764,4.1763,0,4.1934,4.1908,4.1931,4.1908,4.1903,4.1923,4.1904,4.1916,4.1898,4.1912,4.1913,4.1886,4.1892,4.1865,4.1867,4.1853,4.1885,4.1872,4.1888,4.1884,4.1916,4.1913,4.2024,4.2037,4.1927,4.1928,4.1929,0,4.1987,4.2005,4.1984,4.1989,4.1982,4.199,4.1991,4.1959,4.1962,4.1951,4.1964,4.1968,4.1968,4.198,4.196,4.1961,4.1947,4.1986,4.1947,4.1955,4.1947,4.1946,4.1947,4.1994,4.1996,4.1997,4.1998,0,4.2085,4.2071,4.2074,4.2073,4.2075,4.2073,4.2068,4.2074,4.2039,4.2044,4.205,4.205,4.2051,4.2055,4.2051,4.2042,4.2014,4.201,4.2017,4.2026,4.2034,4.2029,4.1909,4.2008,4.2007,4.2006,4.2005,4.2005,4.2159,4.2173,4.216,4.2164,4.2157,4.2153,4.2163,4.2146,4.215,4.2148,4.2129,4.2138,4.2126,4.2119,4.2112,4.2119,4.2101,4.2111,4.2113,4.2116,4.2121,4.2034,4.2118,4.2118,4.2118,4.2117,4.2117,0,4.2254,4.2244,4.2248,4.2242,4.2245,4.2218,4.2211,4.2215,4.2224,4.2215,4.2216,4.2222,4.2225,4.2205,4.2205,4.2214,4.2201,4.2215,4.2213,4.2212,4.2138,4.2132,4.2225,4.2225,4.2225,4.2225,4.2225,4.2225,4.2304,4.2325,4.2309,4.2326,4.2315,4.2323,4.2321,4.2317,4.231,4.2318,4.232,4.2306,4.2293,4.2291,4.2292,4.2286,4.2288,4.2306,4.2296,4.2227,4.2217,4.2207,4.2201,4.2307,4.2307,4.2368,4.2369,4.2369]}]]